Time,TemperatureF,DewpointF,PressureIn,WindDirection,WindDirectionDegrees,WindSpeedMPH,WindSpeedGustMPH,Humidity,HourlyPrecipIn,Conditions,Clouds,dailyrainin,SoftwareType,DateUTC
2013-08-10 00:32:00,67.0,64.0,-100.00,ENE,75,0.0,1.0,92,0.00,,,-99.99,,2013-08-10 04:32:00,
2013-08-10 00:53:00,66.0,64.0,-100.00,West,270,1.0,1.0,94,0.00,,,-99.99,,2013-08-10 04:53:00,
2013-08-10 01:11:00,67.0,64.0,-100.00,NNE,25,1.0,1.0,93,0.00,,,-99.99,,2013-08-10 05:11:00,
2013-08-10 01:22:00,66.0,65.0,-100.00,NNE,20,0.0,1.0,94,0.00,,,-99.99,,2013-08-10 05:22:00,
2013-08-10 01:32:00,66.0,64.0,-100.00,NE,50,0.0,1.0,93,0.00,,,-99.99,,2013-08-10 05:32:00,
2013-08-10 01:43:00,66.0,64.0,-100.00,NNE,20,0.0,1.0,93,0.00,,,-99.99,,2013-08-10 05:43:00,
2013-08-10 02:02:00,66.0,65.0,-100.00,NNE,20,0.0,1.0,94,0.00,,,-99.99,,2013-08-10 06:02:00,
2013-08-10 02:44:00,66.0,64.0,-100.00,WNW,285,0.0,2.0,96,0.00,,,-99.99,,2013-08-10 06:44:00,
2013-08-10 03:02:00,66.0,65.0,-100.00,NW,325,1.0,1.0,95,0.00,,,-99.99,,2013-08-10 07:02:00,
2013-08-10 03:13:00,66.0,65.0,-100.00,NW,305,0.0,1.0,96,0.00,,,-99.99,,2013-08-10 07:13:00,
2013-08-10 03:22:00,66.0,65.0,-100.00,NW,305,0.0,1.0,96,0.00,,,-99.99,,2013-08-10 07:22:00,
2013-08-10 03:33:00,65.0,64.0,-100.00,North,350,0.0,1.0,96,0.00,,,-99.99,,2013-08-10 07:33:00,
2013-08-10 03:43:00,65.0,64.0,-100.00,NW,315,0.0,1.0,95,0.00,,,-99.99,,2013-08-10 07:43:00,
2013-08-10 03:52:00,66.0,65.0,-100.00,NNE,30,0.0,1.0,94,0.00,,,-99.99,,2013-08-10 07:52:00,
2013-08-10 04:01:00,66.0,64.0,-100.00,NW,320,0.0,1.0,94,0.00,,,-99.99,,2013-08-10 08:01:00,
2013-08-10 04:12:00,66.0,64.0,-100.00,NW,320,0.0,1.0,94,0.00,,,-99.99,,2013-08-10 08:12:00,
2013-08-10 04:22:00,66.0,65.0,-100.00,NE,35,1.0,2.0,95,0.00,,,-99.99,,2013-08-10 08:22:00,
2013-08-10 04:32:00,66.0,65.0,-100.00,NE,35,1.0,2.0,95,0.00,,,-99.99,,2013-08-10 08:32:00,
2013-08-10 04:43:00,66.0,65.0,-100.00,NE,40,1.0,1.0,95,0.00,,,-99.99,,2013-08-10 08:43:00,
2013-08-10 05:02:00,66.0,65.0,-100.00,NE,55,1.0,3.0,96,0.55,,,-99.99,,2013-08-10 09:02:00,
2013-08-10 05:12:00,65.0,64.0,-100.00,ESE,105,0.0,2.0,96,0.00,,,-99.99,,2013-08-10 09:12:00,
2013-08-10 05:22:00,65.0,64.0,-100.00,ESE,105,0.0,2.0,96,0.00,,,-99.99,,2013-08-10 09:22:00,
2013-08-10 05:32:00,65.0,64.0,-100.00,ESE,105,0.0,2.0,96,0.00,,,-99.99,,2013-08-10 09:32:00,
2013-08-10 05:43:00,65.0,64.0,-100.00,North,5,0.0,1.0,95,0.00,,,-99.99,,2013-08-10 09:43:00,
2013-08-10 06:22:00,65.0,64.0,-100.00,ENE,70,1.0,2.0,96,0.00,,,-99.99,,2013-08-10 10:22:00,
2013-08-10 06:33:00,65.0,64.0,-100.00,NE,50,1.0,2.0,96,0.00,,,-99.99,,2013-08-10 10:33:00,
2013-08-10 07:43:00,65.0,64.0,-100.00,West,280,1.0,3.0,97,0.00,,,-99.99,,2013-08-10 11:43:00,
2013-08-10 08:01:00,65.0,64.0,-100.00,NW,310,0.0,2.0,97,0.00,,,-99.99,,2013-08-10 12:01:00,
2013-08-10 08:42:00,69.0,65.0,-100.00,NE,55,0.0,2.0,88,0.00,,,-99.99,,2013-08-10 12:42:00,
2013-08-10 09:01:00,70.0,65.0,-100.00,ESE,110,2.0,3.0,83,0.00,,,-99.99,,2013-08-10 13:01:00,
2013-08-10 09:11:00,70.0,65.0,-100.00,ESE,110,1.0,2.0,84,0.00,,,-99.99,,2013-08-10 13:11:00,
2013-08-10 09:22:00,69.0,65.0,-100.00,East,100,1.0,3.0,87,0.00,,,-99.99,,2013-08-10 13:22:00,
2013-08-10 09:32:00,70.0,65.0,-100.00,ESE,120,2.0,2.0,85,0.00,,,-99.99,,2013-08-10 13:32:00,
2013-08-10 09:43:00,70.0,65.0,-100.00,NW,315,0.0,1.0,84,0.00,,,-99.99,,2013-08-10 13:43:00,
2013-08-10 10:12:00,73.0,64.0,-100.00,NNE,20,1.0,3.0,72,0.00,,,-99.99,,2013-08-10 14:12:00,
2013-08-10 10:53:00,76.0,64.0,-100.00,NE,50,2.0,4.0,66,0.00,,,-99.99,,2013-08-10 14:53:00,
2013-08-10 11:02:00,76.0,64.0,-100.00,SE,130,1.0,4.0,66,0.00,,,-99.99,,2013-08-10 15:02:00,
2013-08-10 11:34:00,77.0,65.0,-100.00,SSW,205,2.0,4.0,68,0.00,,,-99.99,,2013-08-10 15:34:00,
2013-08-10 11:43:00,77.0,65.0,-100.00,SE,135,1.0,4.0,67,0.00,,,-99.99,,2013-08-10 15:43:00,
2013-08-10 11:52:00,77.0,65.0,-100.00,SE,145,1.0,4.0,68,0.00,,,-99.99,,2013-08-10 15:52:00,
2013-08-10 12:01:00,77.0,65.0,-100.00,ESE,105,1.0,3.0,67,0.00,,,-99.99,,2013-08-10 16:01:00,
2013-08-10 12:11:00,76.0,65.0,-100.00,WSW,245,1.0,3.0,69,0.00,,,-99.99,,2013-08-10 16:11:00,
2013-08-10 12:22:00,78.0,66.0,-100.00,South,175,2.0,4.0,68,0.00,,,-99.99,,2013-08-10 16:22:00,
2013-08-10 12:32:00,77.0,65.0,-100.00,ESE,115,1.0,4.0,68,0.00,,,-99.99,,2013-08-10 16:32:00,
2013-08-10 12:43:00,80.0,68.0,-100.00,SE,140,1.0,4.0,67,0.00,,,-99.99,,2013-08-10 16:43:00,
2013-08-10 12:53:00,78.0,66.0,-100.00,WSW,240,3.0,6.0,66,0.00,,,-99.99,,2013-08-10 16:53:00,
2013-08-10 13:02:00,79.0,67.0,-100.00,SSW,205,2.0,6.0,66,0.00,,,-99.99,,2013-08-10 17:02:00,
2013-08-10 13:12:00,78.0,65.0,-100.00,SE,135,2.0,7.0,62,0.00,,,-99.99,,2013-08-10 17:12:00,
2013-08-10 13:22:00,78.0,65.0,-100.00,SSW,205,5.0,7.0,64,0.00,,,-99.99,,2013-08-10 17:22:00,
2013-08-10 13:33:00,80.0,66.0,-100.00,SE,125,1.0,9.0,63,0.00,,,-99.99,,2013-08-10 17:33:00,
2013-08-10 13:43:00,79.0,66.0,-100.00,West,265,4.0,9.0,64,0.00,,,-99.99,,2013-08-10 17:43:00,
2013-08-10 13:52:00,78.0,65.0,-100.00,South,190,2.0,11.0,63,0.00,,,-99.99,,2013-08-10 17:52:00,
2013-08-10 14:01:00,82.0,67.0,-100.00,South,185,3.0,7.0,61,0.00,,,-99.99,,2013-08-10 18:01:00,
2013-08-10 14:11:00,79.0,68.0,-100.00,SW,235,4.0,10.0,68,0.00,,,-99.99,,2013-08-10 18:11:00,
2013-08-10 14:23:00,81.0,66.0,-100.00,WSW,240,6.0,11.0,61,0.00,,,-99.99,,2013-08-10 18:23:00,
2013-08-10 14:32:00,80.0,67.0,-100.00,SSE,165,5.0,9.0,63,0.00,,,-99.99,,2013-08-10 18:32:00,
2013-08-10 14:44:00,80.0,66.0,-100.00,South,180,6.0,10.0,62,0.00,,,-99.99,,2013-08-10 18:44:00,
2013-08-10 14:52:00,80.0,65.0,-100.00,SW,235,7.0,10.0,60,0.00,,,-99.99,,2013-08-10 18:52:00,
2013-08-10 15:02:00,80.0,65.0,-100.00,WSW,250,2.0,8.0,60,0.00,,,-99.99,,2013-08-10 19:02:00,
2013-08-10 15:11:00,80.0,64.0,-100.00,West,275,6.0,8.0,58,0.00,,,-99.99,,2013-08-10 19:11:00,
2013-08-10 15:22:00,80.0,65.0,-100.00,West,260,1.0,7.0,62,0.00,,,-99.99,,2013-08-10 19:22:00,
2013-08-10 15:33:00,80.0,65.0,-100.00,South,170,3.0,8.0,60,0.00,,,-99.99,,2013-08-10 19:33:00,
2013-08-10 15:44:00,81.0,66.0,-100.00,SSE,160,4.0,9.0,59,0.00,,,-99.99,,2013-08-10 19:44:00,
2013-08-10 15:53:00,81.0,65.0,-100.00,SSE,165,4.0,9.0,58,0.00,,,-99.99,,2013-08-10 19:53:00,
2013-08-10 16:02:00,80.0,65.0,-100.00,SSW,195,7.0,10.0,60,0.00,,,-99.99,,2013-08-10 20:02:00,
2013-08-10 16:12:00,81.0,66.0,-100.00,WNW,285,4.0,7.0,59,0.00,,,-99.99,,2013-08-10 20:12:00,
2013-08-10 16:22:00,80.0,66.0,-100.00,West,265,7.0,11.0,62,0.00,,,-99.99,,2013-08-10 20:22:00,
2013-08-10 16:33:00,81.0,64.0,-100.00,SSW,205,3.0,9.0,57,0.00,,,-99.99,,2013-08-10 20:33:00,
2013-08-10 16:43:00,82.0,66.0,-100.00,SW,235,5.0,8.0,60,0.00,,,-99.99,,2013-08-10 20:43:00,
2013-08-10 16:53:00,81.0,64.0,-100.00,West,260,0.0,7.0,57,0.00,,,-99.99,,2013-08-10 20:53:00,
2013-08-10 17:02:00,82.0,66.0,-100.00,West,275,4.0,8.0,58,0.00,,,-99.99,,2013-08-10 21:02:00,
2013-08-10 17:12:00,81.0,66.0,-100.00,WSW,255,3.0,8.0,59,0.00,,,-99.99,,2013-08-10 21:12:00,
2013-08-10 17:22:00,82.0,65.0,-100.00,SW,230,6.0,9.0,58,0.00,,,-99.99,,2013-08-10 21:22:00,
2013-08-10 17:32:00,81.0,66.0,-100.00,West,270,4.0,8.0,61,0.00,,,-99.99,,2013-08-10 21:32:00,
2013-08-10 17:42:00,81.0,66.0,-100.00,SW,230,4.0,9.0,60,0.00,,,-99.99,,2013-08-10 21:42:00,
2013-08-10 17:52:00,80.0,65.0,-100.00,West,265,6.0,9.0,60,0.00,,,-99.99,,2013-08-10 21:52:00,
2013-08-10 18:01:00,80.0,66.0,-100.00,WSW,255,4.0,8.0,62,0.00,,,-99.99,,2013-08-10 22:01:00,
2013-08-10 18:11:00,80.0,65.0,-100.00,West,270,5.0,6.0,62,0.00,,,-99.99,,2013-08-10 22:11:00,
2013-08-10 18:21:00,80.0,65.0,-100.00,SSW,205,4.0,7.0,60,0.00,,,-99.99,,2013-08-10 22:21:00,
2013-08-10 18:32:00,80.0,66.0,-100.00,West,260,4.0,7.0,62,0.00,,,-99.99,,2013-08-10 22:32:00,
2013-08-10 18:43:00,80.0,65.0,-100.00,SW,215,4.0,6.0,61,0.00,,,-99.99,,2013-08-10 22:43:00,
2013-08-10 18:52:00,80.0,66.0,-100.00,WSW,245,5.0,7.0,62,0.00,,,-99.99,,2013-08-10 22:52:00,
2013-08-10 19:02:00,80.0,66.0,-100.00,SW,225,4.0,6.0,64,0.00,,,-99.99,,2013-08-10 23:02:00,
2013-08-10 19:12:00,79.0,67.0,-100.00,WSW,240,3.0,5.0,66,0.00,,,-99.99,,2013-08-10 23:12:00,
2013-08-10 19:22:00,80.0,67.0,-100.00,West,270,3.0,5.0,64,0.00,,,-99.99,,2013-08-10 23:22:00,
2013-08-10 19:32:00,79.0,66.0,-100.00,WSW,250,2.0,5.0,66,0.00,,,-99.99,,2013-08-10 23:32:00,
2013-08-10 19:43:00,80.0,67.0,-100.00,WSW,255,2.0,6.0,65,0.00,,,-99.99,,2013-08-10 23:43:00,
2013-08-10 19:53:00,80.0,67.0,-100.00,WSW,240,2.0,4.0,64,0.00,,,-99.99,,2013-08-10 23:53:00,
2013-08-10 20:11:00,79.0,66.0,-100.00,WSW,240,4.0,6.0,65,0.00,,,-99.99,,2013-08-11 00:11:00,
2013-08-10 20:22:00,78.0,65.0,-100.00,SW,220,4.0,6.0,64,0.00,,,-99.99,,2013-08-11 00:22:00,
2013-08-10 20:32:00,78.0,66.0,-100.00,SSW,195,4.0,6.0,67,0.00,,,-99.99,,2013-08-11 00:32:00,
2013-08-10 20:42:00,77.0,67.0,-100.00,SSW,205,4.0,7.0,70,0.00,,,-99.99,,2013-08-11 00:42:00,
2013-08-10 20:52:00,76.0,67.0,-100.00,SSW,200,3.0,6.0,73,0.00,,,-99.99,,2013-08-11 00:52:00,
2013-08-10 21:01:00,76.0,67.0,-100.00,SSW,205,2.0,4.0,75,0.00,,,-99.99,,2013-08-11 01:01:00,
2013-08-10 21:11:00,76.0,67.0,-100.00,SSW,195,2.0,6.0,75,0.00,,,-99.99,,2013-08-11 01:11:00,
2013-08-10 21:22:00,75.0,68.0,-100.00,South,190,1.0,3.0,77,0.00,,,-99.99,,2013-08-11 01:22:00,
2013-08-10 21:32:00,75.0,68.0,-100.00,SE,145,1.0,4.0,78,0.00,,,-99.99,,2013-08-11 01:32:00,
2013-08-10 21:43:00,75.0,68.0,-100.00,South,180,4.0,6.0,78,0.00,,,-99.99,,2013-08-11 01:43:00,
2013-08-10 21:53:00,74.0,67.0,-100.00,SSW,195,3.0,5.0,79,0.00,,,-99.99,,2013-08-11 01:53:00,
2013-08-10 22:02:00,74.0,67.0,-100.00,SSW,205,4.0,6.0,79,0.00,,,-99.99,,2013-08-11 02:02:00,
2013-08-10 22:11:00,74.0,67.0,-100.00,SSW,205,1.0,5.0,80,0.00,,,-99.99,,2013-08-11 02:11:00,
2013-08-10 22:22:00,74.0,67.0,-100.00,South,175,1.0,2.0,79,0.00,,,-99.99,,2013-08-11 02:22:00,
2013-08-10 22:32:00,73.0,67.0,-100.00,North,5,1.0,2.0,83,0.00,,,-99.99,,2013-08-11 02:32:00,
2013-08-10 22:43:00,73.0,67.0,-100.00,NNE,15,1.0,2.0,83,0.00,,,-99.99,,2013-08-11 02:43:00,
2013-08-10 22:56:00,73.0,67.0,-100.00,North,5,0.0,1.0,84,0.00,,,-99.99,,2013-08-11 02:56:00,
2013-08-10 23:06:00,72.0,67.0,-100.00,WNW,290,1.0,1.0,86,0.00,,,-99.99,,2013-08-11 03:06:00,
2013-08-10 23:18:00,71.0,67.0,-100.00,West,280,0.0,1.0,87,0.00,,,-99.99,,2013-08-11 03:18:00,
2013-08-10 23:27:00,71.0,67.0,-100.00,West,280,0.0,1.0,87,0.00,,,-99.99,,2013-08-11 03:27:00,
2013-08-10 23:35:00,71.0,67.0,-100.00,WNW,300,0.0,1.0,88,0.00,,,-99.99,,2013-08-11 03:35:00,
2013-08-10 23:44:00,70.0,67.0,-100.00,NNE,15,0.0,1.0,90,0.00,,,-99.99,,2013-08-11 03:44:00,
2013-08-10 23:54:00,71.0,67.0,-100.00,ESE,115,0.0,1.0,89,0.00,,,-99.99,,2013-08-11 03:54:00,